SL-23 R/B (43090 NORAD) Tracking and Keplerian Element Data

This shows tracking and keplerian element data for the satellite.

Feedback or suggestion? Click here.




ElementValue
Catalog43090
NameSL-23 R/B
Epoch Orbit465
Epoch Day25.01399423
Epoch Year2018
RAAN235.3108
Inclination51.3578
Eccentricity0.0092629
Argument of Perigee175.036
Mean Anonmoly185.2479
Mean Motion16.23502508
Decay Rate0.02175683
L11 43090U 17086D 18025.01399423 .02175683 11808-4 20233-3 0 9992
L22 43090 51.3578 235.3108 0092629 175.0360 185.2479 16.23502508 4652

Live tracking and technical data element details for SL-23 R/B (NORAD 43090). SL-23 R/B can be tracked NOW for your location showing map with azimuth and elevation plus other details from your city location.

Track the satellite on the map from your city or location and see movement details for azimuth, elevation, latitude, longitude, range, height, and movement on the map or in text.







IsCatalogInMostPopularTable: catalog: 43090, numindb: 131
Update: records affected: 1



GetName: 43090 SL-23 R/B

Hit Count: updated at: Fri, 17 Aug 2018 13:20:29 GMT